| time (UTC) | temp F | wind direction | speed MPH | gust MPH | rain 1hr in | rain 24hr in | rain mn in | humidity % | barometer mb |
| 20260831015157 | 73 | 283 | 3.0 | 5.0 | 0.00 | 0.00 | 0.00 | 67 | 1014.9 |
| 20260831014158 | 74 | 272 | 3.0 | 6.0 | 0.00 | 0.00 | 0.00 | 66 | 1014.9 |
| 20260831013158 | 74 | 282 | 4.0 | 6.0 | 0.00 | 0.00 | 0.00 | 66 | 1015.0 |
| 20260831012156 | 74 | 289 | 3.0 | 4.0 | 0.00 | 0.00 | 0.00 | 66 | 1015.0 |
| 20260831011157 | 74 | 279 | 4.0 | 5.0 | 0.00 | 0.00 | 0.00 | 66 | 1015.1 |
| 20260831010159 | 73 | 278 | 2.0 | 3.0 | 0.00 | 0.00 | 0.00 | 67 | 1015.0 |
| 20260831005157 | 73 | 268 | 2.0 | 3.0 | 0.00 | 0.00 | 0.00 | 67 | 1015.0 |
| 20260831004155 | 73 | 243 | 2.0 | 3.0 | 0.00 | 0.00 | 0.00 | 67 | 1015.0 |
| 20260831003157 | 73 | 274 | 2.0 | 3.0 | 0.00 | 0.00 | 0.00 | 67 | 1015.0 |
| 20260831002202 | 73 | 244 | 2.0 | 3.0 | 0.00 | 0.00 | 0.00 | 66 | 1015.0 |
| 20260831001156 | 73 | 252 | 2.0 | 3.0 | 0.00 | 0.00 | 0.00 | 66 | 1015.1 |
| 20260831000207 | 73 | 250 | 2.0 | 3.0 | 0.00 | 0.00 | 0.00 | 65 | 1015.2 |
| 20260830235154 | 73 | 248 | 2.0 | 3.0 | 0.00 | 0.00 | 0.00 | 65 | 1015.2 |
| 20260830234158 | 73 | 282 | 2.0 | 4.0 | 0.00 | 0.00 | 0.00 | 64 | 1015.2 |
| 20260830233157 | 73 | 272 | 2.0 | 5.0 | 0.00 | 0.00 | 0.00 | 64 | 1015.3 |
| 20260830232157 | 74 | 281 | 2.0 | 4.0 | 0.00 | 0.00 | 0.00 | 64 | 1015.3 |
| 20260830231811 | 74 | 272 | 2.0 | 3.0 | 0.00 | 0.00 | 0.00 | 63 | 1015.3 |
| 20260830230327 | 74 | 281 | 2.0 | 3.0 | 0.00 | 0.00 | 0.00 | 62 | 1015.3 |
| 20260830230225 | 74 | 248 | 2.0 | 3.0 | 0.00 | 0.00 | 0.00 | 63 | 1015.3 |
| 20260830225306 | 74 | 252 | 2.0 | 3.0 | 0.00 | 0.00 | 0.00 | 62 | 1015.3 |
| 20260830223155 | 74 | 279 | 2.0 | 3.0 | 0.00 | 0.00 | 0.00 | 62 | 1015.4 |
| 20260830222156 | 74 | 250 | 2.0 | 3.0 | 0.00 | 0.00 | 0.00 | 62 | 1015.4 |
| 20260830221155 | 74 | 251 | 2.0 | 3.0 | 0.00 | 0.00 | 0.00 | 61 | 1015.5 |
| 20260830220204 | 74 | 244 | 2.0 | 4.0 | 0.00 | 0.00 | 0.00 | 60 | 1015.4 |
| 20260830215155 | 75 | 241 | 3.0 | 4.0 | 0.00 | 0.00 | 0.00 | 60 | 1015.4 |
| 20260830214158 | 75 | 231 | 3.0 | 4.0 | 0.00 | 0.00 | 0.00 | 59 | 1015.4 |
| 20260830213153 | 75 | 248 | 2.0 | 3.0 | 0.00 | 0.00 | 0.00 | 58 | 1015.3 |
| 20260830212149 | 75 | 276 | 0.0 | 3.0 | 0.00 | 0.00 | 0.00 | 57 | 1015.3 |
| 20260830211149 | 76 | 252 | 0.0 | 2.0 | 0.00 | 0.00 | 0.00 | 56 | 1015.2 |
| 20260830210154 | 76 | 255 | 1.0 | 3.0 | 0.00 | 0.00 | 0.00 | 56 | 1015.2 |
| 20260830205146 | 76 | 258 | 1.0 | 3.0 | 0.00 | 0.00 | 0.00 | 56 | 1015.2 |
| 20260830204146 | 76 | 258 | 1.0 | 4.0 | 0.00 | 0.00 | 0.00 | 56 | 1015.2 |
| 20260830203146 | 76 | 275 | 2.0 | 3.0 | 0.00 | 0.00 | 0.00 | 56 | 1015.3 |
| 20260830202921 | 76 | 275 | 2.0 | 3.0 | 0.00 | 0.00 | 0.00 | 57 | 1015.2 |
| 20260830201144 | 76 | 21 | 1.0 | 2.0 | 0.00 | 0.00 | 0.00 | 58 | 1015.1 |
| 20260830200202 | 77 | 21 | 1.0 | 2.0 | 0.00 | 0.00 | 0.00 | 59 | 1015.2 |
| 20260830195143 | 77 | 21 | 1.0 | 2.0 | 0.00 | 0.00 | 0.00 | 59 | 1015.2 |
| 20260830194146 | 77 | 21 | 1.0 | 2.0 | 0.00 | 0.00 | 0.00 | 58 | 1015.1 |
| 20260830193144 | 77 | 21 | 0.0 | 0.0 | 0.00 | 0.00 | 0.00 | 55 | 1015.2 |
| 20260830192149 | 77 | 21 | 0.0 | 0.0 | 0.00 | 0.00 | 0.00 | 53 | 1015.2 |
| 20260830191750 | 78 | 21 | 0.0 | 0.0 | 0.00 | 0.00 | 0.00 | 55 | 1015.2 |
| 20260830190145 | 78 | 21 | 0.0 | 2.0 | 0.00 | 0.00 | 0.00 | 58 | 1015.2 |
| 20260830185145 | 78 | 21 | 1.0 | 2.0 | 0.00 | 0.00 | 0.00 | 59 | 1015.1 |
| 20260830184143 | 78 | 21 | 1.0 | 2.0 | 0.00 | 0.00 | 0.00 | 57 | 1015.1 |
| 20260830183143 | 79 | 37 | 1.0 | 2.0 | 0.00 | 0.00 | 0.00 | 55 | 1015.0 |
| 20260830182140 | 79 | 28 | 1.0 | 3.0 | 0.00 | 0.00 | 0.00 | 53 | 1015.0 |
| 20260830181144 | 79 | 38 | 2.0 | 4.0 | 0.00 | 0.00 | 0.00 | 49 | 1014.8 |
| 20260830180158 | 79 | 48 | 2.0 | 5.0 | 0.00 | 0.00 | 0.00 | 49 | 1014.6 |
| 20260830175141 | 80 | 49 | 2.0 | 4.0 | 0.00 | 0.00 | 0.00 | 50 | 1014.5 |
| 20260830174136 | 80 | 48 | 2.0 | 5.0 | 0.00 | 0.00 | 0.00 | 49 | 1014.4 |
| 20260830173138 | 80 | 55 | 3.0 | 5.0 | 0.00 | 0.00 | 0.00 | 47 | 1014.3 |
| 20260830172134 | 80 | 59 | 4.0 | 5.0 | 0.00 | 0.00 | 0.00 | 47 | 1014.4 |
| 20260830171849 | 81 | 56 | 3.0 | 5.0 | 0.00 | 0.00 | 0.00 | 45 | 1014.3 |
| 20260830170137 | 81 | 56 | 4.0 | 7.0 | 0.00 | 0.00 | 0.00 | 45 | 1014.3 |
| 20260830165140 | 82 | 45 | 3.0 | 9.0 | 0.00 | 0.00 | 0.00 | 45 | 1014.3 |
| 20260830164135 | 82 | 45 | 5.0 | 9.0 | 0.00 | 0.00 | 0.00 | 44 | 1014.3 |
| 20260830163129 | 82 | 75 | 3.0 | 9.0 | 0.00 | 0.00 | 0.00 | 43 | 1014.3 |
| 20260830162129 | 83 | 39 | 2.0 | 7.0 | 0.00 | 0.00 | 0.00 | 43 | 1014.4 |
| 20260830161132 | 83 | 48 | 3.0 | 9.0 | 0.00 | 0.00 | 0.00 | 43 | 1014.3 |
| 20260830160151 | 83 | 23 | 4.0 | 9.0 | 0.00 | 0.00 | 0.00 | 43 | 1014.3 |
| 20260830155128 | 83 | 63 | 3.0 | 9.0 | 0.00 | 0.00 | 0.00 | 44 | 1014.4 |
| 20260830154127 | 84 | 32 | 4.0 | 9.0 | 0.00 | 0.00 | 0.00 | 43 | 1014.3 |
| 20260830153117 | 84 | 76 | 5.0 | 10.0 | 0.00 | 0.00 | 0.00 | 42 | 1014.4 |
| 20260830152116 | 84 | 32 | 4.0 | 12.0 | 0.00 | 0.00 | 0.00 | 43 | 1014.4 |
| 20260830151814 | 84 | 35 | 7.0 | 12.0 | 0.00 | 0.00 | 0.00 | 42 | 1014.4 |
| 20260830150126 | 85 | 66 | 6.0 | 10.0 | 0.00 | 0.00 | 0.00 | 43 | 1014.4 |
| 20260830145111 | 85 | 14 | 4.0 | 11.0 | 0.00 | 0.00 | 0.00 | 43 | 1014.5 |
| 20260830144112 | 85 | 68 | 7.0 | 11.0 | 0.00 | 0.00 | 0.00 | 42 | 1014.5 |
| 20260830143113 | 86 | 14 | 5.0 | 12.0 | 0.00 | 0.00 | 0.00 | 41 | 1014.5 |
| 20260830142109 | 86 | 30 | 4.0 | 10.0 | 0.00 | 0.00 | 0.00 | 41 | 1014.6 |
| 20260830141111 | 86 | 62 | 5.0 | 11.0 | 0.00 | 0.00 | 0.00 | 43 | 1014.6 |
| 20260830140913 | 86 | 80 | 4.0 | 12.0 | 0.00 | 0.00 | 0.00 | 42 | 1014.6 |
| 20260830135258 | 86 | 58 | 6.0 | 11.0 | 0.00 | 0.00 | 0.00 | 46 | 1014.6 |
| 20260830135150 | 86 | 8 | 5.0 | 10.0 | 0.00 | 0.00 | 0.00 | 44 | 1014.6 |
| 20260830134237 | 86 | 66 | 8.0 | 13.0 | 0.00 | 0.00 | 0.00 | 44 | 1014.7 |
| 20260830132106 | 86 | 79 | 5.0 | 14.0 | 0.00 | 0.00 | 0.00 | 48 | 1014.7 |
| 20260830131109 | 86 | 37 | 6.0 | 12.0 | 0.00 | 0.00 | 0.00 | 48 | 1014.8 |
| 20260830130118 | 85 | 35 | 7.0 | 12.0 | 0.00 | 0.00 | 0.00 | 48 | 1014.9 |
| 20260830125050 | 86 | 0 | 6.0 | 14.0 | 0.00 | 0.00 | 0.00 | 48 | 1015.0 |
| 20260830124753 | 86 | 104 | 8.0 | 12.0 | 0.00 | 0.00 | 0.00 | 48 | 1015.0 |
| 20260830123049 | 86 | 87 | 8.0 | 13.0 | 0.00 | 0.00 | 0.00 | 47 | 1015.0 |
| 20260830122435 | 86 | 31 | 6.0 | 14.0 | 0.00 | 0.00 | 0.00 | 47 | 1015.1 |
| 20260830122202 | 86 | 17 | 5.0 | 12.0 | 0.00 | 0.00 | 0.00 | 49 | 1015.1 |
| 20260830120131 | 86 | 0 | 6.0 | 11.0 | 0.00 | 0.00 | 0.00 | 48 | 1015.1 |
| 20260830115042 | 86 | 347 | 7.0 | 13.0 | 0.00 | 0.00 | 0.00 | 48 | 1015.0 |
| 20260830114036 | 85 | 37 | 7.0 | 13.0 | 0.00 | 0.00 | 0.00 | 46 | 1015.1 |
| 20260830113038 | 86 | 65 | 6.0 | 13.0 | 0.00 | 0.00 | 0.00 | 47 | 1015.1 |
| 20260830112038 | 85 | 27 | 6.0 | 15.0 | 0.00 | 0.00 | 0.00 | 45 | 1015.1 |
| 20260830111036 | 86 | 13 | 5.0 | 14.0 | 0.00 | 0.00 | 0.00 | 43 | 1015.1 |
| 20260830110824 | 86 | 79 | 7.0 | 12.0 | 0.00 | 0.00 | 0.00 | 43 | 1015.1 |
| 20260830105753 | 86 | 79 | 6.0 | 13.0 | 0.00 | 0.00 | 0.00 | 43 | 1015.2 |
| 20260830104038 | 86 | 62 | 6.0 | 13.0 | 0.00 | 0.00 | 0.00 | 43 | 1015.2 |
| 20260830103036 | 85 | 25 | 7.0 | 13.0 | 0.00 | 0.00 | 0.00 | 43 | 1015.3 |
| 20260830102036 | 85 | 79 | 7.0 | 11.0 | 0.00 | 0.00 | 0.00 | 43 | 1015.4 |
| 20260830101036 | 86 | 54 | 7.0 | 11.0 | 0.00 | 0.00 | 0.00 | 42 | 1015.5 |
| 20260830095744 | 85 | 71 | 6.0 | 12.0 | 0.00 | 0.00 | 0.00 | 46 | 1015.5 |
| 20260830094036 | 85 | 85 | 7.0 | 12.0 | 0.00 | 0.00 | 0.00 | 48 | 1015.5 |
| 20260830093030 | 85 | 94 | 4.0 | 9.0 | 0.00 | 0.00 | 0.00 | 51 | 1015.6 |
| 20260830092035 | 85 | 329 | 2.0 | 10.0 | 0.00 | 0.00 | 0.00 | 51 | 1015.7 |
| 20260830091031 | 85 | 321 | 3.0 | 6.0 | 0.00 | 0.00 | 0.00 | 51 | 1015.8 |
| 20260830090920 | 84 | 52 | 3.0 | 6.0 | 0.00 | 0.00 | 0.00 | 53 | 1015.8 |
| 20260830085747 | 83 | 0 | 3.0 | 7.0 | 0.00 | 0.00 | 0.00 | 53 | 1015.8 |
| 20260830084032 | 83 | 27 | 3.0 | 6.0 | 0.00 | 0.00 | 0.00 | 54 | 1015.8 |
| 20260830083738 | 82 | 35 | 1.0 | 5.0 | 0.00 | 0.00 | 0.00 | 55 | 1015.7 |
| 20260830082026 | 82 | 31 | 3.0 | 6.0 | 0.00 | 0.00 | 0.00 | 56 | 1015.7 |
| 20260830081029 | 82 | 51 | 4.0 | 6.0 | 0.00 | 0.00 | 0.00 | 55 | 1015.6 |
| 20260830080119 | 81 | 58 | 3.0 | 5.0 | 0.00 | 0.00 | 0.00 | 55 | 1015.8 |
| 20260830075733 | 81 | 72 | 2.0 | 7.0 | 0.00 | 0.00 | 0.00 | 55 | 1015.7 |
| 20260830074021 | 81 | 0 | 3.0 | 5.0 | 0.00 | 0.00 | 0.00 | 55 | 1015.6 |
| 20260830073022 | 80 | 305 | 2.0 | 6.0 | 0.00 | 0.00 | 0.00 | 56 | 1015.6 |
| 20260830072020 | 80 | 11 | 3.0 | 7.0 | 0.00 | 0.00 | 0.00 | 55 | 1015.7 |
| 20260830071023 | 80 | 20 | 3.0 | 7.0 | 0.00 | 0.00 | 0.00 | 59 | 1015.6 |
| 20260830070824 | 79 | 0 | 2.0 | 5.0 | 0.00 | 0.00 | 0.00 | 64 | 1015.5 |
| 20260830065021 | 78 | 17 | 2.0 | 4.0 | 0.00 | 0.00 | 0.00 | 66 | 1015.4 |
| 20260830064021 | 78 | 76 | 2.0 | 4.0 | 0.00 | 0.00 | 0.00 | 71 | 1015.5 |
| 20260830063023 | 77 | 97 | 2.0 | 4.0 | 0.00 | 0.00 | 0.00 | 71 | 1015.4 |
| 20260830062020 | 77 | 85 | 2.0 | 3.0 | 0.00 | 0.00 | 0.00 | 72 | 1015.3 |
| 20260830061021 | 77 | 296 | 0.0 | 4.0 | 0.00 | 0.00 | 0.00 | 71 | 1015.2 |
| 20260830060111 | 77 | 283 | 1.0 | 2.0 | 0.00 | 0.00 | 0.00 | 71 | 1015.3 |
| 20260830055020 | 77 | 283 | 1.0 | 1.0 | 0.00 | 0.00 | 0.00 | 71 | 1015.2 |
| 20260830054019 | 77 | 283 | 1.0 | 2.0 | 0.00 | 0.00 | 0.00 | 71 | 1015.2 |
| 20260830053021 | 77 | 283 | 0.0 | 2.0 | 0.00 | 0.00 | 0.00 | 71 | 1015.1 |
| 20260830052019 | 77 | 140 | 1.0 | 3.0 | 0.00 | 0.00 | 0.00 | 71 | 1015.1 |
| 20260830051015 | 77 | 290 | 1.0 | 3.0 | 0.00 | 0.00 | 0.00 | 71 | 1015.0 |
| 20260830050016 | 76 | 290 | 2.0 | 5.0 | 0.00 | 0.00 | 0.00 | 71 | 1014.9 |
| 20260830045019 | 76 | 303 | 3.0 | 4.0 | 0.00 | 0.00 | 0.00 | 70 | 1014.8 |
| 20260830044712 | 76 | 312 | 1.0 | 3.0 | 0.00 | 0.00 | 0.00 | 69 | 1014.9 |
| 20260830043005 | 76 | 292 | 2.0 | 4.0 | 0.00 | 0.00 | 0.00 | 69 | 1014.8 |
| 20260830042017 | 76 | 288 | 3.0 | 5.0 | 0.00 | 0.00 | 0.00 | 68 | 1014.7 |
| 20260830040959 | 76 | 278 | 4.0 | 6.0 | 0.00 | 0.00 | 0.00 | 68 | 1014.7 |
| 20260830040751 | 76 | 285 | 3.0 | 4.0 | 0.00 | 0.00 | 0.00 | 67 | 1014.7 |
| 20260830035003 | 77 | 288 | 2.0 | 4.0 | 0.00 | 0.00 | 0.00 | 67 | 1014.6 |
| 20260830034001 | 77 | 302 | 2.0 | 4.0 | 0.00 | 0.00 | 0.00 | 66 | 1014.7 |
| 20260830033004 | 77 | 274 | 2.0 | 3.0 | 0.00 | 0.00 | 0.00 | 65 | 1014.6 |
| 20260830031958 | 77 | 295 | 2.0 | 3.0 | 0.00 | 0.00 | 0.00 | 65 | 1014.7 |
| 20260830031701 | 77 | 286 | 2.0 | 3.0 | 0.00 | 0.00 | 0.00 | 64 | 1014.8 |
| 20260830025958 | 77 | 286 | 2.0 | 2.0 | 0.00 | 0.00 | 0.00 | 64 | 1014.7 |
| 20260830024958 | 78 | 286 | 2.0 | 4.0 | 0.00 | 0.00 | 0.00 | 64 | 1014.8 |
| 20260830023956 | 78 | 286 | 3.0 | 4.0 | 0.00 | 0.00 | 0.00 | 63 | 1014.9 |
| 20260830023322 | 78 | 289 | 3.0 | 4.0 | 0.00 | 0.00 | 0.00 | 62 | 1015.0 |
| 20260830023056 | 78 | 285 | 3.0 | 4.0 | 0.00 | 0.00 | 0.00 | 63 | 1014.9 |
| 20260830020957 | 78 | 279 | 3.0 | 4.0 | 0.00 | 0.00 | 0.00 | 62 | 1015.0 |
| 20260830015956 | 78 | 279 | 3.0 | 4.0 | 0.00 | 0.00 | 0.00 | 62 | 1015.1 |